KINEIS-2A

Last updated on Sun Apr 12 2026 00:02:47 GMT+0000 (Coordinated Universal Time)

1 62932U 25028E 26101.10882017 .00000949 00000+0 15854-3 0 9993 2 62932 98.1039 156.4613 0000793 77.0125 283.1171 14.72196921 62734
UTC large
Height (km)
Speed (km/s)
/
Latitude / Longitude
Inclination (degrees)
Orbital Period (minutes)
Azimuth
Elevation
Range (km)
Doppler Factor

Next 0 passes for location: London (51.5072 / 0.1276)

Sorry there are no passes over London.
KINEIS-2A